Theta_e
323 321 323 324 324 323 324 326 333 335 334 332 332 331 332 329 328 330 329 331 331 329
319 320 321 323 325 324 326 326 328 331 332 331 332 331 331 326 327 328 328 329 330 328
313 314 315 316 316 318 322 324 326 328 329 330 330 330 329 326 327 326 324 324 326 327
311 312 312 312 313 314 315 316 315 318 323 326 327 327 326 326 325 323 324 325 324 324
310 310 310 310 311 312 312 313 313 313 314 315 317 323 324 323 322 321 321 322 322 321
307 307 308 308 309 309 309 310 310 311 311 311 313 314 317 319 322 322 322 321 320 320
305 305 305 305 306 306 307 307 308 309 309 309 310 311 313 314 317 320 322 324 322 321
303 304 304 304 304 305 304 305 305 305 306 308 308 308 308 310 313 317 319 322 322 324
302 302 302 302 303 303 303 303 303 303 304 305 305 302 302 306 307 311 315 318 320 322
300 300 301 300 301 300 300 301 300 302 303 303 304 300 299 301 306 310 313 315 318 318
297 297 297 298 298 298 298 298 299 299 301 300 302 299 298 300 307 309 311 315 315 318
295 295 296 296 296 297 297 296 297 297 298 300 301 298 297 299 303 307 309 314 317 320
295 295 294 295 295 296 296 295 296 296 297 299 300 299 297 299 304 305 308 316 318 307
295 295 296 296 296 297 297 296 296 296 298 299 301 303 297 297 303 305 308 312 316 314
Wind_Speed
5 5 5 7 7 8 8 9 9 10 11 13 12 11 10 8 8 8 9 12 11 9
6 6 5 7 7 8 9 9 12 12 12 13 13 13 11 9 10 9 10 10 11 10
5 6 7 7 7 7 8 9 11 12 12 12 13 13 12 11 12 11 10 10 12 11
9 10 10 9 10 10 10 11 11 11 12 13 14 14 13 14 14 14 14 13 13 14
12 12 12 12 13 13 14 14 14 14 14 14 15 15 17 18 16 17 17 16 16 17
13 13 14 14 14 14 15 15 16 16 17 17 17 17 17 18 19 19 19 18 18 17
14 15 14 15 15 15 15 16 16 17 18 18 18 19 18 19 19 19 19 18 19 18
14 14 15 15 15 15 15 15 16 17 17 17 16 13 18 19 20 19 20 18 19 19
15 15 15 15 15 15 15 16 16 17 17 17 13 14 12 15 18 21 21 19 19 19
15 15 15 15 16 16 16 16 17 15 16 16 16 15 16 21 19 18 19 18 18 18
15 15 15 15 16 16 15 15 15 16 14 16 15 14 16 18 15 14 18 18 19 18
15 16 16 17 14 14 13 13 13 14 17 16 17 15 13 16 14 14 16 16 18 18
16 15 16 14 14 13 13 13 11 13 14 17 15 18 16 16 9 12 12 13 11 5
15 14 15 14 12 12 12 13 12 13 13 15 16 18 16 17 10 9 11 9 3 1
Wind_Direction
339 301 290 286 283 274 270 274 286 257 232 224 228 228 222 231 239 244 245 251 255 267
24 8 339 315 297 283 282 275 267 261 253 252 243 233 228 233 238 237 247 252 253 255
346 334 321 312 308 311 306 292 280 267 258 254 255 257 253 241 240 241 245 248 252 253
316 312 305 299 299 296 293 286 284 281 276 265 259 255 253 255 261 255 248 246 250 254
312 311 305 300 296 294 289 286 282 280 275 269 266 263 256 254 252 252 252 251 251 252
307 304 300 297 296 294 292 288 285 279 272 268 265 262 259 258 255 250 248 248 253 255
305 304 302 301 297 294 293 290 284 278 275 273 271 267 265 263 261 258 253 249 248 251
303 300 298 297 295 296 292 289 288 286 281 278 274 271 272 270 267 263 261 253 248 245
301 300 298 297 295 294 293 292 289 286 283 281 276 278 269 276 278 275 266 260 255 254
303 299 299 302 298 296 296 297 289 288 283 280 280 278 267 267 271 268 263 266 259 259
305 307 302 299 300 299 297 296 294 289 289 287 284 274 264 269 279 274 269 260 259 257
309 304 302 298 295 289 288 291 289 294 293 288 287 282 272 274 280 276 277 256 257 264
303 299 293 290 287 287 283 282 283 283 279 282 280 272 256 260 268 272 273 262 261 289
299 293 290 288 286 284 287 285 283 281 280 275 269 274 263 254 252 257 274 274 150 34